DW5978 Whyalla SA AU current weather conditions

sailwx.info

Wind from 322 at 6 knots gusting 13

Air temperature 21.1° C
Dewpoint 15.2° C

Last reported at 2016-Apr-29 00:40 UTC.
Time now 2016-Apr-29 01:58 UTC

Location: S 33°01' E 137°32'.
View on Google Maps.

See reports from other nearby stations

  
Tides and Currents Weather Stations Pressure Air Temp Water Temp Dewpoint Dewpoint Depression Visibility Wind Speed Wind Dir Waves Ship Positions
date/time (UTC)wind fromknots sea level pressurealtimeterstation pressurevisibilityair tempwater tempwave heightnotes
2016-Apr-29 00:40 322 6 gusting 13 21.1
2016-Apr-29 00:25 343 8 gusting 15 20.6
2016-Apr-29 00:10 341 6 gusting 13 20.0
2016-Apr-28 23:55 333 7 gusting 12 19.4
2016-Apr-28 23:40 347 6 gusting 8 18.9
2016-Apr-28 23:25 359 3 gusting 8 17.8
2016-Apr-28 23:09 345 0 gusting 3 17.2
2016-Apr-28 22:56 285 2 gusting 3 17.2
2016-Apr-28 14:24 308 3 gusting 5 22.2
2016-Apr-28 14:09 339 2 gusting 4 21.1
2016-Apr-28 13:54 277 3 gusting 6 22.2
2016-Apr-28 13:39 339 0 gusting 2 22.8
2016-Apr-28 13:24 339 0 gusting 1 23.3
2016-Apr-28 13:09 338 0 gusting 6 23.9
2016-Apr-28 12:54 299 1 gusting 3 24.4
2016-Apr-28 12:39 323 2 gusting 6 25.0
2016-Apr-28 12:24 339 5 gusting 8 25.6
2016-Apr-28 12:09 352 3 gusting 11 26.1
2016-Apr-28 11:54 023 6 gusting 17 26.1
2016-Apr-28 11:39 319 6 gusting 13 26.1
2016-Apr-28 11:24 352 7 gusting 14 26.7
2016-Apr-28 11:09 030 8 gusting 19 26.7
2016-Apr-28 10:54 006 7 gusting 11 26.7
2016-Apr-28 10:39 022 6 gusting 10 26.7
2016-Apr-28 10:24 038 6 gusting 12 27.2
2016-Apr-28 10:09 357 7 gusting 12 27.2
2016-Apr-28 09:54 019 7 gusting 18 27.2
2016-Apr-28 09:39 054 6 gusting 10 26.7
2016-Apr-28 09:24 013 6 gusting 13 26.7
2016-Apr-28 09:09 344 7 gusting 17 27.2
2016-Apr-28 08:54 037 7 gusting 12 27.2
2016-Apr-28 08:39 044 6 gusting 15 27.2
2016-Apr-28 08:24 039 6 gusting 14 27.8
2016-Apr-28 08:09 046 6 gusting 11 27.8
2016-Apr-28 07:54 030 6 gusting 11 27.8
2016-Apr-28 07:39 015 6 gusting 12 28.3
2016-Apr-28 07:24 355 5 gusting 11 28.3
2016-Apr-28 07:09 342 7 gusting 12 28.3
2016-Apr-28 06:54 004 4 gusting 15 28.3
2016-Apr-28 06:39 008 10 gusting 15 28.9
2016-Apr-28 06:24 006 7 gusting 14 30.0
2016-Apr-28 06:09 349 12 gusting 19 28.9
2016-Apr-28 05:54 357 9 gusting 17 28.3
2016-Apr-28 05:39 360 11 gusting 18 28.3
2016-Apr-28 05:24 027 8 gusting 17 28.9
2016-Apr-28 05:09 341 7 gusting 18 28.9
2016-Apr-28 04:54 347 6 gusting 19 29.4
2016-Apr-28 04:40 019 11 gusting 17 27.8
2016-Apr-28 04:24 357 8 gusting 13 27.8
2016-Apr-28 04:09 353 6 gusting 15 27.8
2016-Apr-28 03:53 022 11 gusting 17 27.8
2016-Apr-28 03:38 358 3 gusting 11 27.2
2016-Apr-28 03:23 347 10 gusting 13 26.7
2016-Apr-28 03:08 008 6 gusting 13 26.1
2016-Apr-28 02:53 347 7 gusting 13 26.1
2016-Apr-28 02:38 351 5 gusting 9 26.1
2016-Apr-28 02:23 027 4 gusting 7 25.0
2016-Apr-28 02:08 352 5 gusting 10 23.9
2016-Apr-28 01:53 046 4 gusting 8 22.8
2016-Apr-28 01:38 084 1 gusting 6 22.2
2016-Apr-28 01:23 093 1 gusting 7 21.7
2016-Apr-28 01:08 058 0 gusting 3 21.1
2016-Apr-28 00:53 111 2 gusting 5 20.6
2016-Apr-28 00:38 136 3 gusting 6 20.0
2016-Apr-28 00:23 119 2 gusting 6 19.4
2016-Apr-28 00:08 105 2 gusting 6 19.4
2016-Apr-27 23:53 131 2 gusting 6 19.4
2016-Apr-27 23:38 156 1 gusting 4 18.3
2016-Apr-27 23:23 228 2 gusting 5 17.2
2016-Apr-27 23:08 120 0 gusting 2 16.7
2016-Apr-27 22:53 146 0 gusting 2 16.7
2016-Apr-27 22:38 115 16.7
2016-Apr-27 22:23 150 0 gusting 4 16.7
2016-Apr-27 22:09 079 0 gusting 3 16.7
2016-Apr-27 21:53 105 1 gusting 3 16.7
2016-Apr-27 21:38 108 0 gusting 2 16.7
2016-Apr-27 21:23 129 0 gusting 2 16.7
2016-Apr-27 21:08 128 0 gusting 2 17.2
2016-Apr-27 20:53 081 0 gusting 1 17.2
2016-Apr-27 20:38 297 0 gusting 1 17.2
2016-Apr-27 20:23 297 17.8
2016-Apr-27 20:08 294 0 gusting 2 17.8
2016-Apr-27 19:53 291 0 gusting 2 17.8
2016-Apr-27 19:38 300 0 gusting 1 18.3
2016-Apr-27 19:23 204 18.3
2016-Apr-27 19:08 229 1 gusting 4 18.3
2016-Apr-27 18:53 117 0 gusting 3 18.3
2016-Apr-27 18:38 222 1 gusting 3 18.3
2016-Apr-27 18:22 153 1 gusting 3 18.3
2016-Apr-27 18:07 165 0 gusting 5 18.3
2016-Apr-27 17:52 215 18.3
2016-Apr-27 17:37 195 2 gusting 5 18.3
2016-Apr-27 17:22 204 0 gusting 5 18.3
2016-Apr-27 17:07 173 2 gusting 5 18.3
2016-Apr-27 16:54 187 2 gusting 6 18.3
2016-Apr-27 16:37 156 1 gusting 4 18.3
2016-Apr-27 16:22 086 2 gusting 6 18.3
2016-Apr-27 16:07 243 5 gusting 12 18.3
2016-Apr-27 15:52 235 4 gusting 10 18.9
2016-Apr-27 15:37 231 5 gusting 9 18.9
2016-Apr-27 15:22 238 4 gusting 10 19.4
2016-Apr-27 15:07 228 2 gusting 7 19.4
2016-Apr-27 14:52 233 2 gusting 6 20.0
2016-Apr-27 14:37 136 2 gusting 6 20.0
2016-Apr-27 14:22 225 1 gusting 6 20.6
2016-Apr-27 14:07 229 0 gusting 5 21.1
2016-Apr-27 13:52 210 5 gusting 7 22.2
2016-Apr-27 13:37 297 1 gusting 3 22.8
2016-Apr-27 13:22 271 4 gusting 12 25.6
2016-Apr-27 13:07 004 6 gusting 14 25.6
2016-Apr-27 12:52 358 6 gusting 19 26.1
2016-Apr-27 12:37 008 7 gusting 16 25.6
2016-Apr-27 12:22 350 6 gusting 11 25.6
2016-Apr-27 12:07 348 5 gusting 9 25.6
2016-Apr-27 11:52 354 4 gusting 6 25.6
2016-Apr-27 11:37 338 2 gusting 6 26.1
2016-Apr-27 11:22 008 6 gusting 13 26.7
2016-Apr-27 11:07 358 5 gusting 8 26.7
2016-Apr-27 10:52 353 3 gusting 5 26.7
2016-Apr-27 10:37 343 4 gusting 7 26.7
2016-Apr-27 10:22 343 2 gusting 6 26.1
2016-Apr-27 10:07 340 6 gusting 13 26.1
2016-Apr-27 09:52 340 2 gusting 3 25.6
2016-Apr-27 09:37 314 2 gusting 6 26.1
2016-Apr-27 09:22 294 9 gusting 16 27.2
2016-Apr-27 09:06 333 3 gusting 5 26.7
2016-Apr-27 08:51 323 2 gusting 5 27.2
2016-Apr-27 08:36 340 2 gusting 4 27.8
2016-Apr-27 08:21 339 1 gusting 7 28.3
2016-Apr-27 08:06 302 3 gusting 11 28.3
2016-Apr-27 07:51 318 3 gusting 6 28.9
2016-Apr-27 07:36 304 4 gusting 9 29.4
2016-Apr-27 07:21 312 3 gusting 9 29.4
2016-Apr-27 07:06 304 6 gusting 13 30.0
2016-Apr-27 06:51 311 11 gusting 19 30.6
2016-Apr-27 06:36 302 6 gusting 17 30.6
2016-Apr-27 06:21 312 11 gusting 17 31.1
2016-Apr-27 06:06 327 8 gusting 16 30.6
2016-Apr-27 05:51 341 10 gusting 19 31.1
2016-Apr-27 05:36 308 12 gusting 20 30.6
2016-Apr-27 05:21 011 12 gusting 22 31.1
2016-Apr-27 05:06 322 14 gusting 22 31.1
2016-Apr-27 04:51 309 16 gusting 25 31.1
2016-Apr-27 04:36 328 15 gusting 21 31.1
2016-Apr-27 04:21 345 10 gusting 19 31.7
2016-Apr-27 04:06 307 12 gusting 23 31.1
2016-Apr-27 03:51 323 14 gusting 23 30.0
2016-Apr-27 03:36 328 14 gusting 25 30.6
2016-Apr-27 03:21 322 11 gusting 26 30.0
2016-Apr-27 03:06 315 15 gusting 26 29.4
2016-Apr-27 02:51 304 16 gusting 23 28.9
2016-Apr-27 02:36 304 13 gusting 25 28.3
2016-Apr-27 02:21 360 13 gusting 22 27.8
2016-Apr-27 02:06 352 13 gusting 24 27.2
2016-Apr-27 01:51 344 11 gusting 19 26.7
2016-Apr-27 01:36 351 11 gusting 26 26.1
2016-Apr-27 01:21 333 13 gusting 22 26.1
2016-Apr-27 01:06 340 12 gusting 25 26.1